Find Starlink 2582

NORAD ID: 48460 Int'l Des: 2021-040 Owner: SPXS Country: US Constellation: starlink operational
LEOCIRCULAR

Current View

Loading 3D Globe...

About Starlink 2582

Description loading...

Upcoming Passes

Passes for default location (London). Set your location on the main map for personalized predictions.

Altitude History

Loading altitude history...

Two-Line Element Set

1 48460U 21040AJ 26149.58337963 .00135545 00000-0 90507-3 0 9992
2 48460 53.0505 93.4108 0006885 60.6019 203.1658 15.74412077 5970
Epoch: May 29, 2026 • Age: 11 hours

Current Status

Altitude 348.5 km
Velocity 7.71 km/s
Sub-Earth Point 53.00°N, 81.59°W
Launch Date May 9, 2021
Age 5 years
Type internet

Technical Details

Classification Payload
Mass 260.00 kg
Dry Mass 248.00 kg
Total Mass 260.00 kg
Length 0.20 m
Diameter 2.80 m
Span 9.00 m
Shape Box + pan
Manufacturer SPXS
Bus Type Starlink
Phase Status In Orbit
Owner/State SPXS/US

Most Searched